Location: Table Mountain
(47.2500°N, 120.5778°W)
Time: 06:38:59
(UTC-07:00)

Vanguard 1 Rocket - All Passes

Search period start: 23 October 2017 00:00
Search period end: 02 November 2017 00:00
Orbit: 655 x 4222 km, 34.3° (Epoch: 22 October)

Date Brightness Start Highest point End Pass type
(mag) Time Alt. Az. Time Alt. Az. Time Alt. Az.
23 Oct - 05:05:53 10° S 05:09:53 12° SSE 05:13:11 10° SE visible
23 Oct - 07:29:02 10° SW 07:35:15 22° S 07:39:35 10° SE daylight
23 Oct - 09:55:29 10° WSW 09:59:30 19° SSW 10:02:48 10° SE daylight
24 Oct - 06:17:06 10° SSW 06:24:18 20° SSE 06:29:14 10° ESE visible
24 Oct - 08:43:28 10° SW 08:49:03 24° S 08:53:04 10° SE daylight
24 Oct - 11:11:02 10° SW 11:12:51 12° SSW 11:14:34 10° S daylight
25 Oct - 05:05:28 10° SSW 05:13:01 18° SSE 05:18:22 10° ESE visible
25 Oct - 07:31:10 10° SW 07:38:24 26° S 07:43:09 10° ESE daylight
25 Oct - 09:58:32 10° WSW 10:02:32 18° SSW 10:05:47 10° SSE daylight
26 Oct - 03:54:56 10° S 04:01:23 14° SSE 04:06:24 10° SE visible
26 Oct - 06:18:38 10° SW 06:27:26 25° S 06:33:01 10° ESE visible
26 Oct - 08:46:11 10° WSW 08:52:08 25° S 08:56:19 10° SE daylight
27 Oct - 05:06:12 10° SSW 05:16:07 23° SSE 05:22:31 10° ESE visible
27 Oct - 07:33:30 10° WSW 07:41:30 29° S 07:46:33 10° SE daylight
27 Oct - 10:01:44 10° WSW 10:05:31 17° SSW 10:08:36 10° SSE daylight
28 Oct - 03:54:18 10° SSW 04:04:26 20° SSE 04:11:24 10° ESE visible
28 Oct - 06:20:30 10° SW 06:30:32 30° S 06:36:35 10° ESE visible
28 Oct - 08:48:58 10° WSW 08:55:10 25° SSW 08:59:27 10° SE daylight
29 Oct - 02:43:51 10° S 02:52:25 15° SSE 02:58:59 10° ESE visible
29 Oct - 05:07:26 10° SW 05:19:12 29° SSE 05:26:18 10° ESE visible
29 Oct - 07:35:57 10° WSW 07:44:34 31° S 07:49:52 10° SE daylight
29 Oct - 10:05:08 10° WSW 10:08:25 14° SSW 10:11:08 10° S daylight
30 Oct - 03:54:40 10° SSW 04:07:27 26° SSE 04:15:33 10° ESE visible
30 Oct - 06:22:34 10° WSW 06:33:37 34° S 06:40:01 10° ESE visible
30 Oct - 08:51:51 10° WSW 08:58:08 24° SSW 09:02:29 10° SSE daylight
31 Oct - 02:42:50 10° SSW 02:55:19 21° SSE 03:03:58 10° ESE visible
31 Oct - 05:08:59 10° SW 05:22:14 34° S 05:29:51 10° ESE visible
31 Oct - 07:38:31 10° WSW 07:47:35 32° SSW 07:53:05 10° SE daylight
31 Oct - 10:08:58 10° WSW 10:11:13 12° SW 10:13:11 10° SSW daylight
01 Nov - 01:32:56 10° S 01:42:56 15° SE 01:50:47 10° ESE visible
01 Nov - 03:55:34 10° SW 04:10:25 31° SSE 04:19:18 10° ESE visible
01 Nov - 06:24:47 10° WSW 06:36:39 37° S 06:43:20 10° ESE visible
01 Nov - 08:54:49 10° WSW 09:01:02 22° SSW 09:05:21 10° SSE daylight
